Weather History for Kremmling, CO

Change the Weather History Date:

Friday, May 4, 2012

  Actual Average (KEGE) Record (KEGE)
Temperature  
Mean Temperature 52 °F -  
Max Temperature 75 °F 67 °F 82 °F (1966)
Min Temperature 30 °F 31 °F 15 °F (1967)
Degree Days  
Heating Degree Days 12    
Growing Degree Days 2 (Base 50)    
Moisture  
Dew Point 10 °F    
Average Humidity 25    
Maximum Humidity 65    
Minimum Humidity 4    
Precipitation  
Precipitation 0.00 in - - ()
Sea Level Pressure  
Sea Level Pressure 30.07 in    
Wind  
Wind Speed 5 mph (SW)    
Max Wind Speed 25 mph    
Max Gust Speed 33 mph    
Visibility 10 miles    
Events      
Averages and records for this station are not official NWS values.
T = Trace of Precipitation, MM = Missing Value Source: NWS Daily Summary

Daily Weather History Graph

Daily Weather History Graph

Search for Another Location

Airport:

Trip Planner

Search our weather history database for the weather conditions in past years. The results will help you decide how hot, cold, wet, or windy it might be!

Date:

Astronomy

May. 04, 2012 Rise Set
Actual Time 6:01 AM MDT 8:03 PM MDT
Civil Twilight 5:31 AM MDT 8:33 PM MDT
Nautical Twilight 4:55 AM MDT 9:10 PM MDT
Astronomical Twilight 4:15 AM MDT 9:49 PM MDT
Moon 6:45 PM MDT (5/4) 4:43 AM MDT (5/4)
Length of Visible Light 15h 02m
Length of Day
14h 02m
Waxing Gibbous, 97% of the Moon is Illuminated
May 4
Waxing Gibbous
May 5
Full
May 12
Last Quarter
May 20
New
May 28
First Quarter

Hourly Weather History & Observations

Time (MDT) Temp. Windchill Dew Point Humidity Pressure Visibility Wind Dir Wind Speed Gust Speed Precip Events Conditions
12:13 AM 46.4 °F - 17.6 °F 32% 30.05 in 10.0 mi Calm Calm - N/A   Clear
12:33 AM 44.6 °F - 19.4 °F 37% 30.05 in 10.0 mi Calm Calm - N/A   Clear
12:53 AM 41.0 °F - 19.4 °F 42% 30.06 in 10.0 mi Calm Calm - N/A   Clear
1:13 AM 41.0 °F - 19.4 °F 42% 30.05 in 10.0 mi Calm Calm - N/A   Clear
1:33 AM 37.4 °F - 19.4 °F 48% 30.06 in 10.0 mi Calm Calm - N/A   Clear
1:53 AM 37.4 °F - 17.6 °F 45% 30.06 in 10.0 mi Calm Calm - N/A   Clear
2:13 AM 37.4 °F - 19.4 °F 48% 30.06 in 10.0 mi Calm Calm - N/A   Clear
2:33 AM 37.4 °F - 21.2 °F 52% 30.06 in 10.0 mi Calm Calm - N/A   Clear
3:13 AM 35.6 °F - 23.0 °F 60% 30.07 in 10.0 mi Calm Calm - N/A   Clear
3:33 AM 33.8 °F - 21.2 °F 60% 30.07 in 10.0 mi Calm Calm - N/A   Clear
3:53 AM 32.0 °F - 21.2 °F 64% 30.08 in 10.0 mi Calm Calm - N/A   Clear
4:13 AM 32.0 °F - 21.2 °F 64% 30.09 in 10.0 mi Calm Calm - N/A   Clear
4:53 AM 32.0 °F - 21.2 °F 64% 30.09 in 10.0 mi Calm Calm - N/A   Clear
5:13 AM 32.0 °F - 21.2 °F 64% 30.09 in 10.0 mi Calm Calm - N/A   Clear
5:53 AM 30.2 °F - 19.4 °F 64% 30.10 in 10.0 mi Calm Calm - N/A   Clear
6:13 AM 30.2 °F - 19.4 °F 64% 30.10 in 10.0 mi Calm Calm - N/A   Clear
6:33 AM 30.2 °F - 19.4 °F 64% 30.11 in 10.0 mi Calm Calm - N/A   Clear
6:52 AM 32.0 °F - 21.2 °F 64% 30.11 in 10.0 mi Calm Calm - N/A   Clear
7:13 AM 33.8 °F - 23.0 °F 65% 30.11 in 10.0 mi Calm Calm - N/A   Clear
7:33 AM 35.6 °F - 23.0 °F 60% 30.12 in 10.0 mi Calm Calm - N/A   Clear
7:53 AM 37.4 °F - 21.2 °F 52% 30.12 in 10.0 mi Calm Calm - N/A   Clear
8:13 AM 42.8 °F - 21.2 °F 42% 30.12 in 10.0 mi Calm Calm - N/A   Clear
8:33 AM 44.6 °F - 21.2 °F 39% 30.11 in 10.0 mi Calm Calm - N/A   Clear
8:53 AM 50.0 °F - 21.2 °F 32% 30.11 in 10.0 mi Calm Calm - N/A   Clear
9:13 AM 53.6 °F - 23.0 °F 30% 30.10 in 10.0 mi Calm Calm - N/A   Clear
9:33 AM 59.0 °F - 19.4 °F 22% 30.10 in 10.0 mi NNE 8.1 mph - N/A   Clear
9:52 AM 62.6 °F - 17.6 °F 18% 30.10 in 10.0 mi North 5.8 mph - N/A   Clear
10:13 AM 62.6 °F - 15.8 °F 16% 30.10 in 10.0 mi SE 5.8 mph - N/A   Clear
10:33 AM 62.6 °F - 14.0 °F 15% 30.10 in 10.0 mi SW 6.9 mph - N/A   Clear
10:53 AM 68.0 °F - 12.2 °F 12% 30.09 in 10.0 mi West 21.9 mph 32.2 mph N/A   Clear
11:13 AM 69.8 °F - 8.6 °F 9% 30.09 in 10.0 mi WSW 19.6 mph 31.1 mph N/A   Clear
11:33 AM 69.8 °F - 6.8 °F 9% 30.09 in 10.0 mi SW 16.1 mph 31.1 mph N/A   Clear
11:53 AM 69.8 °F - 5.0 °F 8% 30.09 in 10.0 mi SW 17.3 mph 27.6 mph N/A   Clear
12:13 PM 69.8 °F - 1.4 °F 7% 30.08 in 10.0 mi SW 12.7 mph 33.4 mph N/A   Clear
12:33 PM 71.6 °F - 3.2 °F 7% 30.08 in 10.0 mi West 20.7 mph 26.5 mph N/A   Clear
12:52 PM 71.6 °F - 5.0 °F 7% 30.07 in 10.0 mi West 13.8 mph 32.2 mph N/A   Clear
1:13 PM 73.4 °F - 6.8 °F 8% 30.07 in 10.0 mi SSW 13.8 mph 29.9 mph N/A   Clear
1:33 PM 73.4 °F - 5.0 °F 7% 30.07 in 10.0 mi SW 15.0 mph 32.2 mph N/A   Clear
2:13 PM 73.4 °F - 1.4 °F 6% 30.05 in 10.0 mi WSW 15.0 mph 26.5 mph N/A   Clear
2:33 PM 73.4 °F - -2.2 °F 5% 30.04 in 10.0 mi WSW 23.0 mph 33.4 mph N/A   Clear
2:53 PM 73.4 °F - -5.8 °F 4% 30.04 in 10.0 mi WSW 25.3 mph 32.2 mph N/A   Clear
3:13 PM 73.4 °F - -4.0 °F 5% 30.03 in 10.0 mi SW 19.6 mph 33.4 mph N/A   Clear
3:33 PM 75.2 °F - 1.4 °F 6% 30.02 in 10.0 mi West 17.3 mph 23.0 mph N/A   Clear
3:53 PM 75.2 °F - 3.2 °F 6% 30.02 in 10.0 mi WSW 15.0 mph 26.5 mph N/A   Clear
4:13 PM 75.2 °F - -0.4 °F 5% 30.02 in 10.0 mi West 19.6 mph 26.5 mph N/A   Clear
4:33 PM 75.2 °F - 1.4 °F 6% 30.02 in 10.0 mi SW 16.1 mph 27.6 mph N/A   Clear
4:53 PM 73.4 °F - -0.4 °F 5% 30.02 in 10.0 mi SW 17.3 mph 25.3 mph N/A   Clear
5:13 PM 73.4 °F - -0.4 °F 5% 30.02 in 10.0 mi WSW 18.4 mph 28.8 mph N/A   Clear
5:33 PM 73.4 °F - 1.4 °F 6% 30.02 in 10.0 mi WSW 13.8 mph 20.7 mph N/A   Clear
5:53 PM 73.4 °F - 1.4 °F 6% 30.02 in 10.0 mi SW 17.3 mph 27.6 mph N/A   Clear
6:13 PM 73.4 °F - 1.4 °F 6% 30.02 in 10.0 mi WSW 16.1 mph 21.9 mph N/A   Clear
6:33 PM 73.4 °F - 1.4 °F 6% 30.02 in 10.0 mi SW 15.0 mph 26.5 mph N/A   Clear
6:53 PM 71.6 °F - -0.4 °F 6% 30.02 in 10.0 mi SW 15.0 mph 21.9 mph N/A   Clear
7:13 PM 69.8 °F - -2.2 °F 6% 30.02 in 10.0 mi SW 16.1 mph 23.0 mph N/A   Clear
7:32 PM 69.8 °F - -0.4 °F 6% 30.02 in 10.0 mi SW 11.5 mph 20.7 mph N/A   Clear
7:53 PM 66.2 °F - 1.4 °F 8% 30.03 in 10.0 mi SW 11.5 mph 17.3 mph N/A   Clear
8:13 PM 64.4 °F - -0.4 °F 7% 30.03 in 10.0 mi WSW 12.7 mph 19.6 mph N/A   Clear
8:33 PM 62.6 °F - -0.4 °F 8% 30.04 in 10.0 mi WSW 11.5 mph 16.1 mph N/A   Clear
8:53 PM 60.8 °F - -0.4 °F 8% 30.04 in 10.0 mi SW 9.2 mph - N/A   Clear
9:13 PM 60.8 °F - -2.2 °F 8% 30.05 in 10.0 mi West 8.1 mph 17.3 mph N/A   Clear
9:33 PM 59.0 °F - 1.4 °F 10% 30.06 in 10.0 mi Calm Calm - N/A   Clear
9:53 PM 53.6 °F - 3.2 °F 13% 30.07 in 10.0 mi East 8.1 mph - N/A   Clear
10:13 PM 55.4 °F - 3.2 °F 12% 30.08 in 10.0 mi NNE 4.6 mph - N/A   Clear
10:33 PM 53.6 °F - 5.0 °F 14% 30.08 in 10.0 mi SE 4.6 mph - N/A   Clear
10:53 PM 50.0 °F - 6.8 °F 17% 30.08 in 10.0 mi Calm Calm - N/A   Clear
11:13 PM 48.2 °F - 8.6 °F 20% 30.08 in 10.0 mi Calm Calm - N/A   Clear
11:33 PM 44.6 °F - 10.4 °F 25% 30.08 in 10.0 mi Calm Calm - N/A   Clear
11:53 PM 44.6 °F 43.1 °F 14.0 °F 29% 30.09 in 10.0 mi SE 3.5 mph - N/A   Clear